Location: Hebron
(33.0265°N, 96.8636°W)
Time: 17:09:25
(UTC+00:00)

Okean 1 - Pass Details

Date: 12 July 2022
Orbit: 532 x 552 km, 82.5° (Epoch: 18 August)

Event Time Altitude Azimuth Distance (km) Brightness Sun altitude
Rises 07:58:27 0° 9° (N) 2,680 7.9 -31.4°
Reaches altitude 10° 08:00:55 10° 23° (NNE) 1,785 6.8 -31.2°
Enters shadow 08:03:01 21° 52° (NE) 1,230 5.6 -31.0°
